This demonstration page uses our WeatherBlox Daily Observations layout. Learn more.

Left ArrowRight Arrow

39.08367, -84.50855

Hourly Observations for November 3, 2018

Temp ( °F °C ) Dew Point ( °F °C ) Humidity (%) Winds ( mph kmh ) Pressure ( in mb ) Visibility ( mi km ) Precip ( " mm )
12:32 am 00:32 Cloudy with Light Rain 43 6.1 41 5 93 93 W 7 11 29.94 1014 9 14 0.01 0.25
12:53 am 00:53 Cloudy with Light Rain 43 6.1 41 5 93 93 WSW 5 7 29.92 1013 10 16 0.02 0.51
1:10 am 01:10 Cloudy with Light Rain 43 6.1 41 5 93 93 WSW 6 9 29.94 1014 10 16 0.00 0.03
1:53 am 01:53 Mostly Cloudy 42 5.6 41 5 96 96 SW 5 7 29.93 1014 10 16 0.00 0.03
2:53 am 02:53 Mostly Clear 42 5.6 39 3.9 89 89 Calm 29.95 1014 10 16 0.00 0.00
3:53 am 03:53 Clear 40 4.4 39 3.9 97 97 WSW 5 7 29.97 1015 10 16 0.00 0.00
4:53 am 04:53 Clear 39 3.9 38 3.3 96 96 SW 6 9 29.99 1016 10 16 0.00 0.00
5:53 am 05:53 Clear 37 2.8 37 2.8 100 100 WSW 6 9 30.03 1017 10 16 0.00 0.00
6:53 am 06:53 Clear 37 2.8 37 2.8 100 100 Calm 30.06 1018 9 14 0.00 0.00
7:09 am 07:09 Clear with Mist and Fog 35 1.7 35 1.7 100 100 Calm 30.06 1018 2 3 0.00 0.00
7:16 am 07:16 Clear 35 1.7 35 1.7 100 100 Calm 30.06 1018 10 16 0.00 0.00
7:35 am 07:35 Mostly Clear with Patchy Fog 34 1.1 34 1.1 100 100 NE 3 6 30.06 1018 10 16 0.00 0.00
7:41 am 07:41 Partly Cloudy with Patchy Fog 34 1.1 34 1.1 100 100 NNE 5 7 30.06 1018 2 3 0.00 0.00
7:53 am 07:53 Mostly Clear with Patchy Fog 34 1.1 34 1.1 100 100 Calm 30.08 1019 2 3 0.00 0.00
8:53 am 08:53 Partly Cloudy with Patchy Fog 34 1.1 34 1.1 100 100 S 5 7 30.13 1020 2 3 0.00 0.00
9:06 am 09:06 Partly Cloudy with Patchy Fog 35 1.7 35 1.7 100 100 Calm 30.12 1020 7 11 0.00 0.00
9:53 am 09:53 Sunny 41 5 41 5 100 100 Calm 30.16 1021 8 13 0.00 0.00
10:53 am 10:53 Sunny 46 7.8 42 5.6 86 86 VRB 3 6 30.18 1022 10 16 0.00 0.00
11:53 am 11:53 Sunny 49 9.4 40 4.4 71 71 SSW 5 7 30.20 1023 10 16 0.00 0.00
12:53 pm 12:53 Sunny 52 11.1 42 5.6 69 69 SSW 9 15 30.23 1024 10 16 0.00 0.00
1:53 pm 13:53 Partly Cloudy 54 12.2 39 3.9 57 57 VRB 3 6 30.22 1023 10 16 0.00 0.00
2:53 pm 14:53 Partly Cloudy 52 11.1 38 3.3 59 59 SW 5 7 30.21 1023 10 16 0.00 0.00
3:53 pm 15:53 Sunny 56 13.3 39 3.9 53 53 Calm 30.20 1023 10 16 0.00 0.00
4:53 pm 16:53 Mostly Sunny 55 12.8 39 3.9 55 55 Calm 30.21 1023 10 16 0.00 0.00
5:53 pm 17:53 Sunny 54 12.2 41 5 62 62 Calm 30.24 1024 10 16 0.00 0.00
6:53 pm 18:53 Clear 48 8.9 41 5 77 77 Calm 30.25 1024 10 16 0.00 0.00
7:53 pm 19:53 Clear 43 6.1 42 5.6 97 97 Calm 30.27 1025 10 16 0.00 0.00
8:53 pm 20:53 Clear 42 5.6 41 5 96 96 Calm 30.29 1026 10 16 0.00 0.00
9:53 pm 21:53 Clear 41 5 40 4.4 96 96 Calm 30.29 1026 10 16 0.00 0.00
10:53 pm 22:53 Clear with Mist and Fog 41 5 41 5 100 100 Calm 30.31 1027 4 6 0.00 0.00
11:09 pm 23:09 Clear with Mist and Fog 39 3.9 39 3.9 100 100 Calm 30.30 1026 2 3 0.00 0.00
11:19 pm 23:19 Clear with Mist and Fog 40 4.4 40 4.4 100 100 Calm 30.33 1027 3 5 0.00 0.00
11:44 pm 23:44 Clear with Mist and Fog 40 4.4 40 4.4 100 100 Calm 30.33 1027 2 3 0.00 0.00
11:53 pm 23:53 Clear with Mist and Fog 40 4.4 40 4.4 100 100 Calm 30.32 1027 4 6 0.00 0.00

Powered by AerisWeather